Time,TemperatureF,DewpointF,PressureIn,WindDirection,WindDirectionDegrees,WindSpeedMPH,WindSpeedGustMPH,Humidity,HourlyPrecipIn,Conditions,Clouds,dailyrainin,SoftwareType,DateUTC
2013-11-22 00:02:00,57.8,56.4,30.12,WSW,238,0.0,0.0,95,0.00,RA,,0.00,WeatherDisplay:10.37,2013-11-22 06:02:00,
2013-11-22 00:07:00,57.8,56.4,30.12,WSW,238,1.1,0.0,95,0.00,RA,,0.00,WeatherDisplay:10.37,2013-11-22 06:07:00,
2013-11-22 00:12:00,57.8,56.4,30.12,WSW,238,0.0,0.0,95,0.00,CLR,,0.00,WeatherDisplay:10.37,2013-11-22 06:12:00,
2013-11-22 00:17:00,57.8,56.7,30.12,South,187,1.1,0.0,96,0.00,CLR,,0.00,WeatherDisplay:10.37,2013-11-22 06:17:00,
2013-11-22 00:22:00,57.8,56.7,30.12,SW,221,4.6,0.0,96,0.00,CLR,,0.00,WeatherDisplay:10.37,2013-11-22 06:22:00,
2013-11-22 00:27:00,57.8,56.7,30.12,SW,218,0.0,0.1,96,0.00,CLR,,0.00,WeatherDisplay:10.37,2013-11-22 06:27:00,
2013-11-22 00:32:00,57.8,56.7,30.12,SSW,192,0.0,0.0,96,0.00,CLR,,0.00,WeatherDisplay:10.37,2013-11-22 06:32:00,
2013-11-22 00:37:00,57.8,56.7,30.12,SSW,206,0.0,0.0,96,0.00,CLR,,0.00,WeatherDisplay:10.37,2013-11-22 06:37:00,
2013-11-22 00:42:00,57.8,56.7,30.12,SSW,198,0.0,0.0,96,0.01,RA,,0.01,WeatherDisplay:10.37,2013-11-22 06:42:00,
2013-11-22 00:47:00,57.8,56.7,30.12,South,177,1.1,1.1,96,0.01,RA,,0.01,WeatherDisplay:10.37,2013-11-22 06:47:00,
2013-11-22 00:52:00,57.9,56.8,30.12,SSW,192,1.0,0.0,96,0.01,,,0.01,WeatherDisplay:10.37,2013-11-22 06:52:00,
2013-11-22 00:57:00,57.9,56.8,30.13,SSW,211,0.0,0.0,96,0.01,CLR,,0.01,WeatherDisplay:10.37,2013-11-22 06:57:00,
2013-11-22 01:02:00,58.0,56.9,30.13,SW,214,1.1,0.0,96,0.02,RA,,0.02,WeatherDisplay:10.37,2013-11-22 07:02:00,
2013-11-22 01:07:00,58.0,56.9,30.13,South,191,0.0,0.2,96,0.02,RA,,0.02,WeatherDisplay:10.37,2013-11-22 07:07:00,
2013-11-22 01:12:00,58.0,56.9,30.13,SW,220,3.5,3.5,96,0.02,CLR,,0.02,WeatherDisplay:10.37,2013-11-22 07:12:00,
2013-11-22 01:17:00,58.1,57.0,30.14,SW,221,5.8,5.8,96,0.02,CLR,,0.02,WeatherDisplay:10.37,2013-11-22 07:17:00,
2013-11-22 01:22:00,58.1,57.0,30.14,SW,232,2.3,2.3,96,0.02,CLR,,0.02,WeatherDisplay:10.37,2013-11-22 07:22:00,
2013-11-22 01:27:00,58.1,57.0,30.14,SW,233,2.3,2.3,96,0.03,RA,,0.03,WeatherDisplay:10.37,2013-11-22 07:27:00,
2013-11-22 01:32:00,58.1,57.0,30.14,WSW,242,3.5,3.5,96,0.03,RA,,0.03,WeatherDisplay:10.37,2013-11-22 07:32:00,
2013-11-22 01:37:00,58.0,56.9,30.14,SW,225,2.3,2.3,96,0.03,CLR,,0.03,WeatherDisplay:10.37,2013-11-22 07:37:00,
2013-11-22 01:42:00,58.0,56.9,30.14,WSW,243,0.0,0.0,96,0.02,CLR,,0.03,WeatherDisplay:10.37,2013-11-22 07:42:00,
2013-11-22 01:47:00,57.9,56.8,30.14,WSW,256,2.3,2.3,96,0.03,RA,,0.04,WeatherDisplay:10.37,2013-11-22 07:47:00,
2013-11-22 01:52:00,57.8,56.7,30.14,WSW,256,0.0,0.0,96,0.03,RA,,0.04,WeatherDisplay:10.37,2013-11-22 07:52:00,
2013-11-22 01:57:00,57.7,56.6,30.14,WSW,256,0.0,0.0,96,0.03,,,0.04,WeatherDisplay:10.37,2013-11-22 07:57:00,
2013-11-22 02:02:00,57.7,56.6,30.14,WSW,244,0.0,0.0,96,0.02,CLR,,0.04,WeatherDisplay:10.37,2013-11-22 08:02:00,
2013-11-22 02:07:00,57.6,56.5,30.14,WSW,245,1.1,1.1,96,0.02,CLR,,0.04,WeatherDisplay:10.37,2013-11-22 08:07:00,
2013-11-22 02:12:00,57.5,56.4,30.14,West,268,3.5,3.5,96,0.02,CLR,,0.04,WeatherDisplay:10.37,2013-11-22 08:12:00,
2013-11-22 02:17:00,57.5,56.4,30.14,WSW,249,2.3,2.3,96,0.03,RA,,0.05,WeatherDisplay:10.37,2013-11-22 08:17:00,
2013-11-22 02:22:00,57.4,56.3,30.14,WSW,240,2.3,2.3,96,0.04,RA,,0.06,WeatherDisplay:10.37,2013-11-22 08:22:00,
2013-11-22 02:27:00,57.4,56.3,30.14,WSW,258,0.0,0.0,96,0.03,RA,,0.06,WeatherDisplay:10.37,2013-11-22 08:27:00,
2013-11-22 02:32:00,57.4,56.3,30.14,WSW,253,4.6,4.6,96,0.03,CLR,,0.06,WeatherDisplay:10.37,2013-11-22 08:32:00,
2013-11-22 02:37:00,57.3,56.2,30.14,WSW,245,3.5,3.5,96,0.03,CLR,,0.06,WeatherDisplay:10.37,2013-11-22 08:37:00,
2013-11-22 02:42:00,57.3,56.2,30.14,West,264,3.5,3.5,96,0.04,RA,,0.07,WeatherDisplay:10.37,2013-11-22 08:42:00,
2013-11-22 02:47:00,57.2,56.1,30.14,WNW,284,2.3,2.3,96,0.03,RA,,0.07,WeatherDisplay:10.37,2013-11-22 08:47:00,
2013-11-22 02:52:00,57.2,56.1,30.14,WNW,290,3.5,3.5,96,0.03,CLR,,0.07,WeatherDisplay:10.37,2013-11-22 08:52:00,
2013-11-22 02:57:00,57.1,56.0,30.14,NW,308,0.0,0.0,96,0.03,CLR,,0.07,WeatherDisplay:10.37,2013-11-22 08:57:00,
2013-11-22 03:02:00,57.0,55.9,30.14,WSW,257,2.3,2.3,96,0.03,CLR,,0.07,WeatherDisplay:10.37,2013-11-22 09:02:00,
2013-11-22 03:07:00,56.9,55.8,30.14,WSW,254,0.0,0.0,96,0.03,CLR,,0.07,WeatherDisplay:10.37,2013-11-22 09:07:00,
2013-11-22 03:12:00,56.8,55.7,30.14,West,276,0.0,0.0,96,0.03,CLR,,0.07,WeatherDisplay:10.37,2013-11-22 09:12:00,
2013-11-22 03:17:00,56.7,55.9,30.14,West,276,0.0,0.0,97,0.02,CLR,,0.07,WeatherDisplay:10.37,2013-11-22 09:17:00,
2013-11-22 03:22:00,56.7,55.6,30.14,West,278,0.0,0.0,96,0.02,RA,,0.08,WeatherDisplay:10.37,2013-11-22 09:22:00,
2013-11-22 03:27:00,56.6,55.5,30.14,West,277,0.0,0.0,96,0.02,RA,,0.08,WeatherDisplay:10.37,2013-11-22 09:27:00,
2013-11-22 03:32:00,56.5,55.4,30.14,West,259,0.0,0.0,96,0.02,CLR,,0.08,WeatherDisplay:10.37,2013-11-22 09:32:00,
2013-11-22 03:37:00,56.4,55.6,30.14,West,263,3.5,3.5,97,0.02,CLR,,0.08,WeatherDisplay:10.37,2013-11-22 09:37:00,
2013-11-22 03:42:00,56.4,55.6,30.14,West,263,2.3,2.3,97,0.01,CLR,,0.08,WeatherDisplay:10.37,2013-11-22 09:42:00,
2013-11-22 03:47:00,56.3,55.5,30.14,West,269,1.1,1.1,97,0.01,CLR,,0.08,WeatherDisplay:10.37,2013-11-22 09:47:00,
2013-11-22 03:52:00,56.3,55.5,30.14,West,278,3.5,0.0,97,0.01,CLR,,0.08,WeatherDisplay:10.37,2013-11-22 09:52:00,
2013-11-22 03:57:00,56.2,55.4,30.14,WNW,283,1.1,1.1,97,0.01,CLR,,0.08,WeatherDisplay:10.37,2013-11-22 09:57:00,
2013-11-22 04:02:00,56.2,55.4,30.14,WNW,284,3.5,0.0,97,0.01,CLR,,0.08,WeatherDisplay:10.37,2013-11-22 10:02:00,
2013-11-22 04:07:00,56.1,55.3,30.14,WNW,282,0.0,0.0,97,0.01,CLR,,0.08,WeatherDisplay:10.37,2013-11-22 10:07:00,
2013-11-22 04:12:00,56.1,55.3,30.14,WNW,282,0.0,0.0,97,0.01,CLR,,0.08,WeatherDisplay:10.37,2013-11-22 10:12:00,
2013-11-22 04:17:00,56.0,55.2,30.15,NNW,331,1.1,0.0,97,0.01,CLR,,0.08,WeatherDisplay:10.37,2013-11-22 10:17:00,
2013-11-22 04:22:00,56.0,55.2,30.15,NNW,332,0.0,0.0,97,0.00,CLR,,0.08,WeatherDisplay:10.37,2013-11-22 10:22:00,
2013-11-22 04:27:00,55.9,55.1,30.16,NNW,327,4.6,4.6,97,0.00,CLR,,0.08,WeatherDisplay:10.37,2013-11-22 10:27:00,
2013-11-22 04:32:00,55.7,54.6,30.16,NW,315,2.3,0.0,96,0.00,CLR,,0.08,WeatherDisplay:10.37,2013-11-22 10:32:00,
2013-11-22 04:37:00,55.4,54.3,30.16,NW,320,0.0,0.0,96,0.00,CLR,,0.08,WeatherDisplay:10.37,2013-11-22 10:37:00,
2013-11-22 04:42:00,55.3,54.2,30.16,NW,319,0.0,0.0,96,0.00,CLR,,0.08,WeatherDisplay:10.37,2013-11-22 10:42:00,
2013-11-22 04:47:00,55.1,54.0,30.17,NW,319,5.0,5.0,96,0.00,CLR,,0.08,WeatherDisplay:10.37,2013-11-22 10:47:00,
2013-11-22 04:52:00,55.0,54.2,30.17,NW,315,0.0,0.0,97,0.00,CLR,,0.08,WeatherDisplay:10.37,2013-11-22 10:52:00,
2013-11-22 04:57:00,54.9,54.1,30.16,NW,306,3.5,3.5,97,0.00,CLR,,0.08,WeatherDisplay:10.37,2013-11-22 10:57:00,
2013-11-22 05:02:00,54.8,53.7,30.16,NW,325,0.0,0.0,96,0.00,CLR,,0.08,WeatherDisplay:10.37,2013-11-22 11:02:00,
2013-11-22 05:07:00,54.7,53.9,30.16,NW,306,0.0,0.0,97,0.00,CLR,,0.08,WeatherDisplay:10.37,2013-11-22 11:07:00,
2013-11-22 05:12:00,54.6,53.8,30.16,NW,313,0.0,0.0,97,0.00,CLR,,0.08,WeatherDisplay:10.37,2013-11-22 11:12:00,
2013-11-22 05:17:00,54.6,53.8,30.16,NNW,332,0.0,0.0,97,0.00,CLR,,0.08,WeatherDisplay:10.37,2013-11-22 11:17:00,
2013-11-22 05:22:00,54.5,53.7,30.16,NW,322,0.0,0.0,97,0.01,RA,,0.09,WeatherDisplay:10.37,2013-11-22 11:22:00,
2013-11-22 05:27:00,54.4,53.6,30.16,NW,315,0.0,0.0,97,0.01,RA,,0.09,WeatherDisplay:10.37,2013-11-22 11:27:00,
2013-11-22 05:32:00,54.4,53.6,30.16,NW,315,0.0,0.0,97,0.01,,,0.09,WeatherDisplay:10.37,2013-11-22 11:32:00,
2013-11-22 05:37:00,54.3,53.5,30.16,NW,320,0.0,0.0,97,0.02,RA,,0.10,WeatherDisplay:10.37,2013-11-22 11:37:00,
2013-11-22 05:42:00,54.3,53.5,30.17,NNW,332,0.0,0.0,97,0.02,RA,,0.10,WeatherDisplay:10.37,2013-11-22 11:42:00,
2013-11-22 05:47:00,54.2,53.4,30.17,NNW,331,0.0,0.0,97,0.02,CLR,,0.10,WeatherDisplay:10.37,2013-11-22 11:47:00,
2013-11-22 05:52:00,54.2,53.4,30.17,NW,321,1.1,0.0,97,0.02,CLR,,0.10,WeatherDisplay:10.37,2013-11-22 11:52:00,
2013-11-22 05:57:00,54.1,53.3,30.17,NW,326,0.0,0.0,97,0.02,CLR,,0.10,WeatherDisplay:10.37,2013-11-22 11:57:00,
2013-11-22 06:02:00,54.0,53.2,30.17,NNW,343,0.0,0.0,97,0.02,CLR,,0.10,WeatherDisplay:10.37,2013-11-22 12:02:00,
2013-11-22 06:07:00,53.9,53.1,30.18,NNW,342,0.0,0.0,97,0.02,CLR,,0.10,WeatherDisplay:10.37,2013-11-22 12:07:00,
2013-11-22 06:12:00,53.8,53.0,30.18,NNW,347,0.0,0.0,97,0.03,RA,,0.11,WeatherDisplay:10.37,2013-11-22 12:12:00,
2013-11-22 06:17:00,53.7,52.9,30.18,NNW,329,0.0,0.0,97,0.03,RA,,0.11,WeatherDisplay:10.37,2013-11-22 12:17:00,
2013-11-22 06:22:00,53.6,52.8,30.18,NNW,344,1.1,1.1,97,0.02,CLR,,0.11,WeatherDisplay:10.37,2013-11-22 12:22:00,
2013-11-22 06:27:00,53.6,52.8,30.19,NNW,348,5.8,5.8,97,0.02,CLR,,0.11,WeatherDisplay:10.37,2013-11-22 12:27:00,
2013-11-22 06:32:00,53.5,52.7,30.19,NW,323,2.3,2.3,97,0.02,CLR,,0.11,WeatherDisplay:10.37,2013-11-22 12:32:00,
2013-11-22 06:37:00,53.4,52.6,30.19,NNW,336,1.1,1.3,97,0.01,CLR,,0.11,WeatherDisplay:10.37,2013-11-22 12:37:00,
2013-11-22 06:42:00,53.3,52.5,30.19,NW,312,1.1,0.0,97,0.01,CLR,,0.11,WeatherDisplay:10.37,2013-11-22 12:42:00,
2013-11-22 06:47:00,53.2,52.4,30.20,NNE,18,2.0,2.0,97,0.01,CLR,,0.11,WeatherDisplay:10.37,2013-11-22 12:47:00,
2013-11-22 06:52:00,53.1,52.3,30.20,North,355,3.5,3.5,97,0.01,CLR,,0.11,WeatherDisplay:10.37,2013-11-22 12:52:00,
2013-11-22 06:57:00,53.0,52.2,30.21,North,355,3.5,3.5,97,0.01,CLR,,0.11,WeatherDisplay:10.37,2013-11-22 12:57:00,
2013-11-22 07:02:00,53.0,52.2,30.21,NNW,339,2.3,2.3,97,0.01,CLR,,0.11,WeatherDisplay:10.37,2013-11-22 13:02:00,
2013-11-22 07:07:00,52.9,52.1,30.21,North,5,3.5,3.5,97,0.01,CLR,,0.11,WeatherDisplay:10.37,2013-11-22 13:07:00,
2013-11-22 07:12:00,52.9,52.1,30.22,NW,304,1.0,1.0,97,0.00,CLR,,0.11,WeatherDisplay:10.37,2013-11-22 13:12:00,
2013-11-22 07:18:00,52.8,52.0,30.22,NNW,346,2.3,2.3,97,0.00,CLR,,0.11,WeatherDisplay:10.37,2013-11-22 13:18:00,
2013-11-22 07:23:00,52.8,52.0,30.22,NNW,342,3.0,3.0,97,0.00,CLR,,0.11,WeatherDisplay:10.37,2013-11-22 13:23:00,
2013-11-22 07:28:00,52.8,52.0,30.22,NW,310,0.0,0.0,97,0.00,CLR,,0.11,WeatherDisplay:10.37,2013-11-22 13:28:00,
2013-11-22 07:33:00,52.7,51.9,30.23,NW,314,0.0,0.0,97,0.00,CLR,,0.11,WeatherDisplay:10.37,2013-11-22 13:33:00,
2013-11-22 07:38:00,52.7,51.9,30.23,NW,313,0.0,0.0,97,0.00,CLR,,0.11,WeatherDisplay:10.37,2013-11-22 13:38:00,
2013-11-22 07:43:00,52.6,51.8,30.23,North,360,3.5,3.5,97,0.00,CLR,,0.11,WeatherDisplay:10.37,2013-11-22 13:43:00,
2013-11-22 07:48:00,52.6,51.8,30.23,NW,315,3.5,3.5,97,0.00,CLR,,0.11,WeatherDisplay:10.37,2013-11-22 13:48:00,
2013-11-22 07:53:00,52.6,51.8,30.23,North,355,6.0,6.0,97,0.00,CLR,,0.11,WeatherDisplay:10.37,2013-11-22 13:53:00,
2013-11-22 07:58:00,52.5,51.7,30.23,NNW,331,2.3,2.3,97,0.00,CLR,,0.11,WeatherDisplay:10.37,2013-11-22 13:58:00,
2013-11-22 08:03:00,52.5,51.7,30.24,NW,321,1.1,0.0,97,0.00,CLR,,0.11,WeatherDisplay:10.37,2013-11-22 14:03:00,
2013-11-22 08:08:00,52.4,51.6,30.24,NNW,342,4.6,4.6,97,0.00,CLR,,0.11,WeatherDisplay:10.37,2013-11-22 14:08:00,
2013-11-22 08:13:00,52.3,51.2,30.24,NW,320,0.0,0.4,96,0.00,CLR,,0.11,WeatherDisplay:10.37,2013-11-22 14:13:00,
2013-11-22 08:18:00,52.1,51.0,30.24,NNW,329,4.6,4.6,96,0.00,CLR,,0.11,WeatherDisplay:10.37,2013-11-22 14:18:00,
2013-11-22 08:23:00,52.0,51.2,30.25,North,355,3.5,3.5,97,0.00,CLR,,0.11,WeatherDisplay:10.37,2013-11-22 14:23:00,
2013-11-22 08:28:00,51.8,51.0,30.25,NNW,346,3.5,3.5,97,0.00,CLR,,0.11,WeatherDisplay:10.37,2013-11-22 14:28:00,
2013-11-22 08:33:00,51.6,50.5,30.25,North,360,3.5,3.5,96,0.00,CLR,,0.11,WeatherDisplay:10.37,2013-11-22 14:33:00,
2013-11-22 08:38:00,51.4,50.3,30.25,NW,315,4.6,4.6,96,0.00,CLR,,0.11,WeatherDisplay:10.37,2013-11-22 14:38:00,
2013-11-22 08:43:00,51.1,50.0,30.26,North,355,4.6,4.6,96,0.00,CLR,,0.11,WeatherDisplay:10.37,2013-11-22 14:43:00,
2013-11-22 08:48:00,50.9,49.8,30.26,NW,325,3.5,3.5,96,0.00,CLR,,0.11,WeatherDisplay:10.37,2013-11-22 14:48:00,
2013-11-22 08:53:00,50.7,49.6,30.26,NW,321,5.8,0.0,96,0.00,CLR,,0.11,WeatherDisplay:10.37,2013-11-22 14:53:00,
2013-11-22 08:58:00,50.6,49.5,30.26,North,360,6.9,6.9,96,0.00,CLR,,0.11,WeatherDisplay:10.37,2013-11-22 14:58:00,
2013-11-22 09:03:00,50.6,49.5,30.27,NNW,348,1.1,1.1,96,0.00,CLR,,0.11,WeatherDisplay:10.37,2013-11-22 15:03:00,
2013-11-22 09:08:00,50.4,49.3,30.27,NNW,330,4.6,4.6,96,0.00,CLR,,0.11,WeatherDisplay:10.37,2013-11-22 15:08:00,
2013-11-22 09:13:00,50.3,49.2,30.27,NNW,346,3.5,3.5,96,0.00,CLR,,0.11,WeatherDisplay:10.37,2013-11-22 15:13:00,
2013-11-22 09:19:00,50.1,49.0,30.27,NW,319,2.3,2.3,96,0.00,CLR,,0.11,WeatherDisplay:10.37,2013-11-22 15:19:00,
2013-11-22 09:24:00,49.8,48.7,30.28,NNW,329,9.2,9.2,96,0.00,CLR,,0.11,WeatherDisplay:10.37,2013-11-22 15:24:00,
2013-11-22 09:29:00,49.5,48.4,30.28,North,355,6.9,6.9,96,0.00,CLR,,0.11,WeatherDisplay:10.37,2013-11-22 15:29:00,
2013-11-22 09:34:00,49.2,48.1,30.28,North,360,6.0,6.0,96,0.00,CLR,,0.11,WeatherDisplay:10.37,2013-11-22 15:34:00,
2013-11-22 09:39:00,49.1,48.0,30.28,NW,318,0.0,0.0,96,0.00,CLR,,0.11,WeatherDisplay:10.37,2013-11-22 15:39:00,
2013-11-22 09:44:00,49.0,47.9,30.28,North,360,3.5,3.5,96,0.00,CLR,,0.11,WeatherDisplay:10.37,2013-11-22 15:44:00,
2013-11-22 09:49:00,48.9,47.8,30.29,NNW,348,6.9,6.9,96,0.00,CLR,,0.11,WeatherDisplay:10.37,2013-11-22 15:49:00,
2013-11-22 09:54:00,48.7,47.3,30.29,North,5,4.0,4.0,95,0.00,CLR,,0.11,WeatherDisplay:10.37,2013-11-22 15:54:00,
2013-11-22 09:59:00,48.5,47.4,30.30,NNW,328,3.5,3.5,96,0.00,CLR,,0.11,WeatherDisplay:10.37,2013-11-22 15:59:00,
2013-11-22 10:04:00,48.4,47.3,30.30,NNW,346,3.5,3.5,96,0.00,CLR,,0.11,WeatherDisplay:10.37,2013-11-22 16:04:00,
2013-11-22 10:09:00,48.1,46.7,30.30,North,351,3.5,3.5,95,0.00,CLR,,0.11,WeatherDisplay:10.37,2013-11-22 16:09:00,
2013-11-22 10:14:00,47.9,46.5,30.30,North,355,11.5,11.5,95,0.00,CLR,,0.11,WeatherDisplay:10.37,2013-11-22 16:14:00,
2013-11-22 10:19:00,47.7,46.3,30.30,NW,316,3.5,3.5,95,0.00,CLR,,0.11,WeatherDisplay:10.37,2013-11-22 16:19:00,
2013-11-22 10:24:00,47.4,46.0,30.30,North,355,6.9,6.9,95,0.00,CLR,,0.11,WeatherDisplay:10.37,2013-11-22 16:24:00,
2013-11-22 10:29:00,47.3,45.9,30.31,NW,318,3.5,3.5,95,0.00,CLR,,0.11,WeatherDisplay:10.37,2013-11-22 16:29:00,
2013-11-22 10:34:00,47.2,45.8,30.30,NNW,344,3.5,3.5,95,0.00,CLR,,0.11,WeatherDisplay:10.37,2013-11-22 16:34:00,
2013-11-22 10:39:00,47.0,45.6,30.31,NW,323,4.6,4.6,95,0.00,CLR,,0.11,WeatherDisplay:10.37,2013-11-22 16:39:00,
2013-11-22 10:44:00,46.9,45.5,30.31,North,355,4.6,4.6,95,0.00,CLR,,0.11,WeatherDisplay:10.37,2013-11-22 16:44:00,
2013-11-22 10:49:00,46.8,45.4,30.31,NNW,345,4.6,4.6,95,0.00,CLR,,0.11,WeatherDisplay:10.37,2013-11-22 16:49:00,
2013-11-22 10:54:00,46.6,45.0,30.31,North,360,4.6,4.6,94,0.00,CLR,,0.11,WeatherDisplay:10.37,2013-11-22 16:54:00,
2013-11-22 10:59:00,46.4,44.8,30.31,North,355,3.5,3.5,94,0.00,CLR,,0.11,WeatherDisplay:10.37,2013-11-22 16:59:00,
2013-11-22 11:04:00,46.4,45.0,30.31,North,360,3.5,3.5,95,0.00,CLR,,0.11,WeatherDisplay:10.37,2013-11-22 17:04:00,
2013-11-22 11:09:00,46.4,45.0,30.31,NNE,17,4.6,4.6,95,0.00,CLR,,0.11,WeatherDisplay:10.37,2013-11-22 17:09:00,
2013-11-22 11:14:00,46.4,45.0,30.30,North,355,3.5,3.5,95,0.00,CLR,,0.11,WeatherDisplay:10.37,2013-11-22 17:14:00,
2013-11-22 11:19:00,46.4,44.8,30.30,NW,307,6.9,6.9,94,0.00,CLR,,0.11,WeatherDisplay:10.37,2013-11-22 17:19:00,
2013-11-22 11:24:00,46.4,44.8,30.30,NNW,333,2.3,2.3,94,0.00,CLR,,0.11,WeatherDisplay:10.37,2013-11-22 17:24:00,
2013-11-22 11:29:00,46.4,44.8,30.31,NNW,348,3.5,3.5,94,0.00,CLR,,0.11,WeatherDisplay:10.37,2013-11-22 17:29:00,
2013-11-22 11:34:00,46.3,44.7,30.31,WNW,299,7.0,7.0,94,0.00,CLR,,0.11,WeatherDisplay:10.37,2013-11-22 17:34:00,
2013-11-22 11:39:00,46.4,44.8,30.31,NW,319,3.5,3.5,94,0.00,CLR,,0.11,WeatherDisplay:10.37,2013-11-22 17:39:00,
2013-11-22 11:44:00,46.4,44.8,30.31,NNW,345,1.1,0.0,94,0.00,CLR,,0.11,WeatherDisplay:10.37,2013-11-22 17:44:00,
2013-11-22 11:49:00,46.3,44.4,30.31,NW,319,8.1,8.1,93,0.00,CLR,,0.11,WeatherDisplay:10.37,2013-11-22 17:49:00,
2013-11-22 11:54:00,46.1,44.2,30.31,NNW,344,3.5,3.5,93,0.00,CLR,,0.11,WeatherDisplay:10.37,2013-11-22 17:54:00,
2013-11-22 11:59:00,46.1,44.2,30.31,NNW,337,4.6,4.6,93,0.00,CLR,,0.11,WeatherDisplay:10.37,2013-11-22 17:59:00,
2013-11-22 12:04:00,45.9,44.0,30.31,North,355,4.6,4.6,93,0.00,CLR,,0.11,WeatherDisplay:10.37,2013-11-22 18:04:00,
2013-11-22 12:09:00,45.7,43.8,30.31,NNW,329,2.3,2.3,93,0.00,CLR,,0.11,WeatherDisplay:10.37,2013-11-22 18:09:00,
2013-11-22 12:14:00,45.5,43.6,30.32,NNW,346,2.3,2.4,93,0.00,CLR,,0.11,WeatherDisplay:10.37,2013-11-22 18:14:00,
2013-11-22 12:19:00,45.3,43.1,30.32,NNW,346,5.8,5.8,92,0.00,CLR,,0.11,WeatherDisplay:10.37,2013-11-22 18:19:00,
2013-11-22 12:24:00,44.9,42.7,30.32,NNW,331,8.1,8.1,92,0.00,CLR,,0.11,WeatherDisplay:10.37,2013-11-22 18:24:00,
2013-11-22 12:29:00,44.7,42.5,30.32,NNE,17,3.5,3.5,92,0.00,CLR,,0.11,WeatherDisplay:10.37,2013-11-22 18:29:00,
2013-11-22 12:34:00,44.5,42.3,30.32,North,5,4.6,4.6,92,0.00,CLR,,0.11,WeatherDisplay:10.37,2013-11-22 18:34:00,
2013-11-22 12:39:00,44.5,42.3,30.32,NNE,20,3.5,3.5,92,0.00,CLR,,0.11,WeatherDisplay:10.37,2013-11-22 18:39:00,
2013-11-22 12:44:00,44.4,42.2,30.32,NW,325,1.0,1.0,92,0.00,CLR,,0.11,WeatherDisplay:10.37,2013-11-22 18:44:00,
2013-11-22 12:49:00,44.5,42.6,30.31,WSW,257,0.0,0.0,93,0.00,CLR,,0.11,WeatherDisplay:10.37,2013-11-22 18:49:00,
2013-11-22 12:54:00,44.5,42.3,30.32,NW,318,10.0,10.0,92,0.00,CLR,,0.11,WeatherDisplay:10.37,2013-11-22 18:54:00,
2013-11-22 12:59:00,44.3,42.1,30.32,North,9,4.6,4.6,92,0.00,CLR,,0.11,WeatherDisplay:10.37,2013-11-22 18:59:00,
2013-11-22 13:04:00,44.1,41.9,30.32,NW,319,3.5,3.5,92,0.00,CLR,,0.11,WeatherDisplay:10.37,2013-11-22 19:04:00,
2013-11-22 13:09:00,44.0,41.8,30.32,NNW,330,6.9,6.9,92,0.00,CLR,,0.11,WeatherDisplay:10.37,2013-11-22 19:09:00,
2013-11-22 13:14:00,43.9,41.7,30.32,North,5,2.3,2.3,92,0.00,CLR,,0.11,WeatherDisplay:10.37,2013-11-22 19:14:00,
2013-11-22 13:19:00,43.9,41.7,30.32,North,5,3.5,3.5,92,0.00,CLR,,0.11,WeatherDisplay:10.37,2013-11-22 19:19:00,
2013-11-22 13:24:00,43.8,41.6,30.32,North,350,2.3,0.0,92,0.00,CLR,,0.11,WeatherDisplay:10.37,2013-11-22 19:24:00,
2013-11-22 13:29:00,43.8,41.6,30.32,NW,320,3.5,0.0,92,0.00,CLR,,0.11,WeatherDisplay:10.37,2013-11-22 19:29:00,
2013-11-22 13:34:00,43.8,41.6,30.31,North,5,4.0,4.0,92,0.00,CLR,,0.11,WeatherDisplay:10.37,2013-11-22 19:34:00,
2013-11-22 13:39:00,43.9,41.7,30.31,North,5,5.0,5.0,92,0.00,CLR,,0.11,WeatherDisplay:10.37,2013-11-22 19:39:00,
2013-11-22 13:44:00,43.8,41.6,30.30,NW,309,6.9,6.9,92,0.00,CLR,,0.11,WeatherDisplay:10.37,2013-11-22 19:44:00,
2013-11-22 13:49:00,43.7,41.5,30.30,North,360,3.0,3.0,92,0.00,CLR,,0.11,WeatherDisplay:10.37,2013-11-22 19:49:00,
2013-11-22 13:55:00,43.8,41.6,30.30,North,350,1.1,1.1,92,0.00,CLR,,0.11,WeatherDisplay:10.37,2013-11-22 19:55:00,
2013-11-22 14:00:00,43.8,41.6,30.31,North,355,3.5,3.5,92,0.00,CLR,,0.11,WeatherDisplay:10.37,2013-11-22 20:00:00,
2013-11-22 14:05:00,43.8,41.6,30.31,North,350,3.5,3.5,92,0.00,CLR,,0.11,WeatherDisplay:10.37,2013-11-22 20:05:00,
2013-11-22 14:10:00,43.8,41.6,30.31,NNW,343,3.5,3.5,92,0.00,CLR,,0.11,WeatherDisplay:10.37,2013-11-22 20:10:00,
2013-11-22 14:15:00,43.9,41.7,30.31,NW,317,2.3,2.3,92,0.00,CLR,,0.11,WeatherDisplay:10.37,2013-11-22 20:15:00,
2013-11-22 14:20:00,44.0,41.5,30.31,North,360,1.1,1.1,91,0.00,CLR,,0.11,WeatherDisplay:10.37,2013-11-22 20:20:00,
2013-11-22 14:25:00,44.0,41.5,30.31,North,355,6.9,6.9,91,0.00,CLR,,0.11,WeatherDisplay:10.37,2013-11-22 20:25:00,
2013-11-22 14:30:00,44.0,41.5,30.32,NNW,334,0.0,6.0,91,0.00,CLR,,0.11,WeatherDisplay:10.37,2013-11-22 20:30:00,
2013-11-22 14:35:00,43.8,41.3,30.32,North,360,3.5,3.5,91,0.00,CLR,,0.11,WeatherDisplay:10.37,2013-11-22 20:35:00,
2013-11-22 14:40:00,43.8,41.3,30.33,North,351,4.6,4.6,91,0.00,CLR,,0.11,WeatherDisplay:10.37,2013-11-22 20:40:00,
2013-11-22 14:45:00,43.8,41.3,30.32,NNW,346,0.0,4.0,91,0.00,CLR,,0.11,WeatherDisplay:10.37,2013-11-22 20:45:00,
2013-11-22 14:50:00,43.8,41.3,30.32,North,349,4.6,4.6,91,0.00,CLR,,0.11,WeatherDisplay:10.37,2013-11-22 20:50:00,
2013-11-22 14:55:00,43.8,41.3,30.32,NNW,335,1.0,5.0,91,0.00,CLR,,0.11,WeatherDisplay:10.37,2013-11-22 20:55:00,
2013-11-22 15:00:00,43.8,41.3,30.32,NNW,327,1.0,5.0,91,0.00,CLR,,0.11,WeatherDisplay:10.37,2013-11-22 21:00:00,
2013-11-22 15:05:00,43.6,41.1,30.33,North,355,4.6,4.6,91,0.00,CLR,,0.11,WeatherDisplay:10.37,2013-11-22 21:05:00,
2013-11-22 15:10:00,43.5,41.0,30.33,North,360,6.9,6.9,91,0.00,CLR,,0.11,WeatherDisplay:10.37,2013-11-22 21:10:00,
2013-11-22 15:15:00,43.4,40.9,30.33,NW,314,2.3,0.0,91,0.00,CLR,,0.11,WeatherDisplay:10.37,2013-11-22 21:15:00,
2013-11-22 15:20:00,43.3,40.8,30.33,NW,321,6.9,6.9,91,0.00,CLR,,0.11,WeatherDisplay:10.37,2013-11-22 21:20:00,
2013-11-22 15:25:00,43.0,40.6,30.33,NNW,343,1.0,12.0,91,0.00,CLR,,0.11,WeatherDisplay:10.37,2013-11-22 21:25:00,
2013-11-22 15:30:00,42.8,40.4,30.33,NNW,343,2.0,6.0,91,0.00,CLR,,0.11,WeatherDisplay:10.37,2013-11-22 21:30:00,
2013-11-22 15:35:00,42.7,40.3,30.33,NNW,345,2.0,7.0,91,0.00,CLR,,0.11,WeatherDisplay:10.37,2013-11-22 21:35:00,
2013-11-22 15:40:00,42.6,40.4,30.33,North,350,2.3,2.3,92,0.00,CLR,,0.11,WeatherDisplay:10.37,2013-11-22 21:40:00,
2013-11-22 15:45:00,42.6,40.4,30.33,North,353,2.0,5.0,92,0.00,CLR,,0.11,WeatherDisplay:10.37,2013-11-22 21:45:00,
2013-11-22 15:50:00,42.6,40.4,30.34,North,360,3.5,3.5,92,0.00,CLR,,0.11,WeatherDisplay:10.37,2013-11-22 21:50:00,
2013-11-22 15:55:00,42.6,40.4,30.34,North,360,3.5,3.5,92,0.00,CLR,,0.11,WeatherDisplay:10.37,2013-11-22 21:55:00,
2013-11-22 16:00:00,42.6,40.4,30.35,WNW,301,3.5,3.5,92,0.00,CLR,,0.11,WeatherDisplay:10.37,2013-11-22 22:00:00,
2013-11-22 16:05:00,42.6,40.4,30.35,NNW,345,1.0,6.0,92,0.00,CLR,,0.11,WeatherDisplay:10.37,2013-11-22 22:05:00,
2013-11-22 16:10:00,42.5,40.1,30.35,NNW,347,1.0,9.0,91,0.00,CLR,,0.11,WeatherDisplay:10.37,2013-11-22 22:10:00,
2013-11-22 16:15:00,42.5,40.1,30.35,NNW,333,3.5,3.5,91,0.00,CLR,,0.11,WeatherDisplay:10.37,2013-11-22 22:15:00,
2013-11-22 16:20:00,42.4,40.0,30.35,North,355,5.8,5.8,91,0.00,CLR,,0.11,WeatherDisplay:10.37,2013-11-22 22:20:00,
2013-11-22 16:25:00,42.4,40.0,30.35,NNW,344,3.5,3.5,91,0.00,CLR,,0.11,WeatherDisplay:10.37,2013-11-22 22:25:00,
2013-11-22 16:30:00,42.5,40.1,30.37,NNW,345,1.1,0.0,91,0.00,CLR,,0.11,WeatherDisplay:10.37,2013-11-22 22:30:00,
2013-11-22 16:35:00,42.5,40.1,30.37,NNW,339,1.0,7.0,91,0.00,CLR,,0.11,WeatherDisplay:10.37,2013-11-22 22:35:00,
2013-11-22 16:40:00,42.5,40.0,30.37,NNW,333,2.0,8.0,91,0.00,CLR,,0.11,WeatherDisplay:10.37,2013-11-22 22:40:00,
2013-11-22 16:45:00,42.5,40.1,30.37,North,5,5.8,5.8,91,0.00,CLR,,0.11,WeatherDisplay:10.37,2013-11-22 22:45:00,
2013-11-22 16:50:00,42.4,40.0,30.38,NNW,346,0.0,5.0,91,0.00,CLR,,0.11,WeatherDisplay:10.37,2013-11-22 22:50:00,
2013-11-22 16:55:00,42.4,40.0,30.37,North,355,3.0,3.0,91,0.00,CLR,,0.11,WeatherDisplay:10.37,2013-11-22 22:55:00,
2013-11-22 17:00:00,42.4,40.0,30.37,NW,321,4.6,4.6,91,0.00,CLR,,0.11,WeatherDisplay:10.37,2013-11-22 23:00:00,
2013-11-22 17:05:00,42.3,39.6,30.37,NNW,340,5.0,9.0,90,0.00,CLR,,0.11,WeatherDisplay:10.37,2013-11-22 23:05:00,
2013-11-22 17:10:00,42.2,39.8,30.37,NNW,344,4.6,4.6,91,0.00,CLR,,0.11,WeatherDisplay:10.37,2013-11-22 23:10:00,
2013-11-22 17:15:00,42.1,39.4,30.37,North,351,1.0,6.0,90,0.00,CLR,,0.11,WeatherDisplay:10.37,2013-11-22 23:15:00,
2013-11-22 17:20:00,42.0,39.3,30.37,North,355,6.9,6.9,90,0.00,CLR,,0.11,WeatherDisplay:10.37,2013-11-22 23:20:00,
2013-11-22 17:25:00,42.0,39.3,30.37,North,5,3.0,3.0,90,0.00,CLR,,0.11,WeatherDisplay:10.37,2013-11-22 23:25:00,
2013-11-22 17:30:00,42.0,39.3,30.37,North,355,7.0,7.0,90,0.00,CLR,,0.11,WeatherDisplay:10.37,2013-11-22 23:30:00,
2013-11-22 17:35:00,42.0,39.3,30.36,North,358,1.0,7.0,90,0.00,CLR,,0.11,WeatherDisplay:10.37,2013-11-22 23:35:00,
2013-11-22 17:40:00,42.0,39.3,30.37,North,360,3.5,3.5,90,0.00,CLR,,0.11,WeatherDisplay:10.37,2013-11-22 23:40:00,
2013-11-22 17:45:00,42.0,39.3,30.36,North,350,2.0,6.0,90,0.00,CLR,,0.11,WeatherDisplay:10.37,2013-11-22 23:45:00,
2013-11-22 17:50:00,42.0,39.3,30.37,NNW,339,10.4,10.4,90,0.00,CLR,,0.11,WeatherDisplay:10.37,2013-11-22 23:50:00,
2013-11-22 17:55:00,42.0,39.0,30.37,North,356,5.0,9.0,89,0.00,CLR,,0.11,WeatherDisplay:10.37,2013-11-22 23:55:00,
2013-11-22 18:00:00,42.0,39.0,30.36,North,356,2.0,12.0,89,0.00,CLR,,0.11,WeatherDisplay:10.37,2013-11-23 00:00:00,
2013-11-22 18:05:00,42.1,39.1,30.37,North,352,2.0,5.0,89,0.00,CLR,,0.11,WeatherDisplay:10.37,2013-11-23 00:05:00,
2013-11-22 18:10:00,42.1,39.1,30.37,NNW,348,1.0,5.0,89,0.00,CLR,,0.11,WeatherDisplay:10.37,2013-11-23 00:10:00,
2013-11-22 18:15:00,42.1,39.1,30.37,North,358,0.0,5.0,89,0.00,CLR,,0.11,WeatherDisplay:10.37,2013-11-23 00:15:00,
2013-11-22 18:20:00,42.2,39.2,30.37,NNW,329,2.3,2.3,89,0.00,CLR,,0.11,WeatherDisplay:10.37,2013-11-23 00:20:00,
2013-11-22 18:25:00,42.2,39.2,30.38,NNW,338,0.0,0.8,89,0.00,CLR,,0.11,WeatherDisplay:10.37,2013-11-23 00:25:00,
2013-11-22 18:30:00,42.2,38.9,30.38,North,5,3.5,3.5,88,0.00,CLR,,0.11,WeatherDisplay:10.37,2013-11-23 00:30:00,
2013-11-22 18:35:00,42.2,38.9,30.38,NW,326,3.5,3.5,88,0.00,CLR,,0.11,WeatherDisplay:10.37,2013-11-23 00:35:00,
2013-11-22 18:40:00,42.2,38.9,30.38,NNW,342,0.0,2.0,88,0.00,CLR,,0.11,WeatherDisplay:10.37,2013-11-23 00:40:00,
2013-11-22 18:45:00,42.2,38.9,30.38,NNW,348,3.5,3.5,88,0.00,CLR,,0.11,WeatherDisplay:10.37,2013-11-23 00:45:00,
2013-11-22 18:50:00,42.2,38.9,30.38,North,5,9.2,9.2,88,0.00,CLR,,0.11,WeatherDisplay:10.37,2013-11-23 00:50:00,
2013-11-22 18:55:00,42.1,38.8,30.37,North,360,3.5,3.5,88,0.00,CLR,,0.11,WeatherDisplay:10.37,2013-11-23 00:55:00,
2013-11-22 19:00:00,42.1,38.8,30.38,North,355,3.0,3.0,88,0.00,CLR,,0.11,WeatherDisplay:10.37,2013-11-23 01:00:00,
2013-11-22 19:05:00,42.1,38.8,30.39,North,359,0.0,9.0,88,0.00,CLR,,0.11,WeatherDisplay:10.37,2013-11-23 01:05:00,
2013-11-22 19:10:00,42.0,38.7,30.39,North,351,2.0,6.0,88,0.00,CLR,,0.11,WeatherDisplay:10.37,2013-11-23 01:10:00,
2013-11-22 19:15:00,42.0,38.7,30.39,North,355,3.5,3.5,88,0.00,CLR,,0.11,WeatherDisplay:10.37,2013-11-23 01:15:00,
2013-11-22 19:20:00,42.0,38.7,30.39,North,352,0.0,6.0,88,0.00,CLR,,0.11,WeatherDisplay:10.37,2013-11-23 01:20:00,
2013-11-22 19:25:00,42.0,38.7,30.39,NNW,342,1.1,0.0,88,0.00,CLR,,0.11,WeatherDisplay:10.37,2013-11-23 01:25:00,
2013-11-22 19:30:00,42.0,38.7,30.38,North,11,3.5,3.5,88,0.00,CLR,,0.11,WeatherDisplay:10.37,2013-11-23 01:30:00,
2013-11-22 19:35:00,41.8,38.5,30.38,NNW,345,3.5,3.5,88,0.00,CLR,,0.11,WeatherDisplay:10.37,2013-11-23 01:35:00,
2013-11-22 19:40:00,41.7,38.4,30.38,North,11,5.8,5.8,88,0.00,CLR,,0.11,WeatherDisplay:10.37,2013-11-23 01:40:00,
2013-11-22 19:45:00,41.6,38.3,30.39,North,358,2.0,9.0,88,0.00,CLR,,0.11,WeatherDisplay:10.37,2013-11-23 01:45:00,
2013-11-22 19:50:00,41.4,38.1,30.39,North,357,2.0,6.0,88,0.00,CLR,,0.11,WeatherDisplay:10.37,2013-11-23 01:50:00,
2013-11-22 19:55:00,41.3,38.0,30.38,North,360,3.5,3.5,88,0.00,CLR,,0.11,WeatherDisplay:10.37,2013-11-23 01:55:00,
2013-11-22 20:00:00,41.3,38.0,30.39,North,2,0.0,9.0,88,0.00,CLR,,0.11,WeatherDisplay:10.37,2013-11-23 02:00:00,
2013-11-22 20:05:00,41.2,37.9,30.39,North,5,3.5,3.5,88,0.00,CLR,,0.11,WeatherDisplay:10.37,2013-11-23 02:05:00,
2013-11-22 20:10:00,41.1,38.1,30.39,North,356,0.0,6.0,89,0.00,CLR,,0.11,WeatherDisplay:10.37,2013-11-23 02:10:00,
2013-11-22 20:15:00,41.1,38.1,30.38,North,5,4.0,4.0,89,0.00,CLR,,0.11,WeatherDisplay:10.37,2013-11-23 02:15:00,
2013-11-22 20:20:00,41.0,38.0,30.39,North,5,6.9,0.0,89,0.00,CLR,,0.11,WeatherDisplay:10.37,2013-11-23 02:20:00,
2013-11-22 20:25:00,41.0,38.0,30.39,North,4,1.0,6.0,89,0.00,CLR,,0.11,WeatherDisplay:10.37,2013-11-23 02:25:00,
2013-11-22 20:30:00,40.9,37.9,30.38,North,10,5.8,5.8,89,0.00,CLR,,0.11,WeatherDisplay:10.37,2013-11-23 02:30:00,
2013-11-22 20:35:00,40.9,37.9,30.38,North,5,1.1,0.0,89,0.00,CLR,,0.11,WeatherDisplay:10.37,2013-11-23 02:35:00,
2013-11-22 20:40:00,40.9,37.9,30.39,North,360,5.8,5.8,89,0.00,CLR,,0.11,WeatherDisplay:10.37,2013-11-23 02:40:00,
2013-11-22 20:45:00,40.9,37.9,30.38,NNE,17,3.5,3.5,89,0.00,CLR,,0.11,WeatherDisplay:10.37,2013-11-23 02:45:00,
2013-11-22 20:50:00,40.9,37.9,30.39,North,355,4.0,4.0,89,0.00,CLR,,0.11,WeatherDisplay:10.37,2013-11-23 02:50:00,
2013-11-22 20:55:00,41.0,37.7,30.39,North,358,2.0,7.0,88,0.00,CLR,,0.11,WeatherDisplay:10.37,2013-11-23 02:55:00,
2013-11-22 21:00:00,41.1,37.8,30.40,North,5,4.6,4.6,88,0.00,CLR,,0.11,WeatherDisplay:10.37,2013-11-23 03:00:00,
2013-11-22 21:05:00,41.1,37.8,30.40,North,5,4.0,4.0,88,0.00,CLR,,0.11,WeatherDisplay:10.37,2013-11-23 03:05:00,
2013-11-22 21:10:00,41.1,37.8,30.40,North,355,0.0,6.0,88,0.00,CLR,,0.11,WeatherDisplay:10.37,2013-11-23 03:10:00,
2013-11-22 21:15:00,41.2,37.9,30.39,North,9,0.0,0.3,88,0.00,CLR,,0.11,WeatherDisplay:10.37,2013-11-23 03:15:00,
2013-11-22 21:20:00,41.1,37.8,30.40,NNW,337,1.0,7.0,88,0.00,CLR,,0.11,WeatherDisplay:10.37,2013-11-23 03:20:00,
2013-11-22 21:25:00,41.1,37.5,30.40,North,353,0.0,6.0,87,0.00,CLR,,0.11,WeatherDisplay:10.37,2013-11-23 03:25:00,
2013-11-22 21:30:00,41.1,37.5,30.40,NNE,16,3.5,3.5,87,0.00,CLR,,0.11,WeatherDisplay:10.37,2013-11-23 03:30:00,
2013-11-22 21:35:00,41.0,37.4,30.39,North,4,1.0,5.0,87,0.00,CLR,,0.11,WeatherDisplay:10.37,2013-11-23 03:35:00,
2013-11-22 21:40:00,41.0,37.4,30.39,North,0,1.0,6.0,87,0.00,CLR,,0.11,WeatherDisplay:10.37,2013-11-23 03:40:00,
2013-11-22 21:45:00,41.0,37.1,30.39,North,360,3.5,3.5,86,0.00,CLR,,0.11,WeatherDisplay:10.37,2013-11-23 03:45:00,
2013-11-22 21:50:00,41.0,37.4,30.40,North,11,0.0,4.0,87,0.00,CLR,,0.11,WeatherDisplay:10.37,2013-11-23 03:50:00,
2013-11-22 21:55:00,41.0,37.1,30.40,North,360,3.5,3.5,86,0.00,CLR,,0.11,WeatherDisplay:10.37,2013-11-23 03:55:00,
2013-11-22 22:00:00,41.0,37.1,30.39,North,3,0.0,6.0,86,0.00,CLR,,0.11,WeatherDisplay:10.37,2013-11-23 04:00:00,
2013-11-22 22:05:00,41.0,37.1,30.39,North,11,2.0,6.0,86,0.00,CLR,,0.11,WeatherDisplay:10.37,2013-11-23 04:05:00,
2013-11-22 22:10:00,41.0,37.1,30.39,North,355,2.0,2.0,86,0.00,CLR,,0.11,WeatherDisplay:10.37,2013-11-23 04:10:00,
2013-11-22 22:15:00,41.0,37.1,30.39,North,11,4.6,4.6,86,0.00,CLR,,0.11,WeatherDisplay:10.37,2013-11-23 04:15:00,
2013-11-22 22:20:00,40.9,37.0,30.38,North,5,2.0,7.0,86,0.00,CLR,,0.11,WeatherDisplay:10.37,2013-11-23 04:20:00,
2013-11-22 22:25:00,40.9,37.0,30.37,North,10,3.5,3.5,86,0.00,CLR,,0.11,WeatherDisplay:10.37,2013-11-23 04:25:00,
2013-11-22 22:30:00,40.8,36.9,30.37,NNE,17,0.0,5.0,86,0.00,CLR,,0.11,WeatherDisplay:10.37,2013-11-23 04:30:00,
2013-11-22 22:35:00,40.7,37.1,30.38,NNE,17,2.3,2.3,87,0.00,CLR,,0.11,WeatherDisplay:10.37,2013-11-23 04:35:00,
2013-11-22 22:40:00,40.7,37.1,30.38,North,10,1.1,1.7,87,0.00,CLR,,0.11,WeatherDisplay:10.37,2013-11-23 04:40:00,
2013-11-22 22:45:00,40.6,37.0,30.38,NNE,12,0.0,3.0,87,0.00,CLR,,0.11,WeatherDisplay:10.37,2013-11-23 04:45:00,
2013-11-22 22:50:00,40.6,37.0,30.38,NNE,21,0.0,3.0,87,0.00,CLR,,0.11,WeatherDisplay:10.37,2013-11-23 04:50:00,
2013-11-22 22:55:00,40.5,36.9,30.38,North,9,2.0,2.0,87,0.00,CLR,,0.11,WeatherDisplay:10.37,2013-11-23 04:55:00,
2013-11-22 23:00:00,40.5,36.9,30.39,North,9,1.0,6.0,87,0.00,CLR,,0.11,WeatherDisplay:10.37,2013-11-23 05:00:00,
2013-11-22 23:01:00,40.5,36.9,30.39,North,5,5.8,5.8,87,0.00,CLR,,0.11,WeatherDisplay:10.37,2013-11-23 05:01:00,
2013-11-22 23:02:00,40.5,36.9,30.39,North,355,2.3,2.3,87,0.00,CLR,,0.11,WeatherDisplay:10.37,2013-11-23 05:02:00,
2013-11-22 23:07:00,40.4,36.8,30.39,North,5,2.3,2.3,87,0.00,CLR,,0.11,WeatherDisplay:10.37,2013-11-23 05:07:00,
2013-11-22 23:12:00,40.4,36.5,30.39,North,9,3.5,3.5,86,0.00,CLR,,0.11,WeatherDisplay:10.37,2013-11-23 05:12:00,
2013-11-22 23:17:00,40.4,36.5,30.39,North,355,3.5,3.5,86,0.00,CLR,,0.11,WeatherDisplay:10.37,2013-11-23 05:17:00,
2013-11-22 23:22:00,40.3,36.4,30.39,NNE,16,3.5,3.5,86,0.00,CLR,,0.11,WeatherDisplay:10.37,2013-11-23 05:22:00,
2013-11-22 23:27:00,40.4,36.5,30.39,North,355,3.5,3.5,86,0.00,CLR,,0.11,WeatherDisplay:10.37,2013-11-23 05:27:00,
2013-11-22 23:32:00,40.3,36.4,30.40,North,351,4.6,4.6,86,0.00,CLR,,0.11,WeatherDisplay:10.37,2013-11-23 05:32:00,
2013-11-22 23:37:00,40.3,36.4,30.40,NW,319,2.3,2.3,86,0.00,CLR,,0.11,WeatherDisplay:10.37,2013-11-23 05:37:00,
2013-11-22 23:42:00,40.3,36.7,30.39,North,11,0.0,0.0,87,0.00,CLR,,0.11,WeatherDisplay:10.37,2013-11-23 05:42:00,
2013-11-22 23:47:00,40.2,36.6,30.40,North,5,3.5,3.5,87,0.00,CLR,,0.11,WeatherDisplay:10.37,2013-11-23 05:47:00,
2013-11-22 23:52:00,40.1,36.5,30.39,North,355,3.5,3.5,87,0.00,CLR,,0.11,WeatherDisplay:10.37,2013-11-23 05:52:00,
2013-11-22 23:57:00,40.0,36.4,30.39,North,355,2.0,2.0,87,0.00,CLR,,0.11,WeatherDisplay:10.37,2013-11-23 05:57:00,